Location: Unspecified
(43.4354°N, 0.0000°E)
Time: 14:30:17
(UTC+00:00)

S-56A Canister/Altair - Pass Details

Date: 30 June 2019
Orbit: 632 x 2500 km, 38.9° (Epoch: 16 July)

Event Time Altitude Azimuth Distance (km) Brightness Sun altitude
Rises 19:29:57 0° 278° (W) 4,352 12.8 1.4°
Reaches altitude 10° 19:34:37 10° 258° (WSW) 2,976 11.3 0.7°
Maximum altitude 19:38:22 15° 225° (SW) 2,304 10.2 0.1°
Drops below altitude 10° 19:41:33 10° 190° (S) 2,423 9.9 -0.3°
Sets 19:44:45 0° 167° (SSE) 3,142 10.2 -0.8°
